Overview Statistics Trail Chart Weather Telemetry Raw packets
 

This is the latest recevied weather packets stored in our database for station/object G4WLC-1. If no packets are shown the sender has not sent any weather packets the latest 10 day(s).

<< 68 69 70 71 72 73 74 >>
Time Temp. Humidity Pressure Rain* Wind** Luminosity Snow
1788180144 21.11° C 71% 1014.3 hPa 0 mm - - -
1788179833 20.56° C 74% 1014.4 hPa 0.25 mm - - -
1788179533 20.56° C 74% 1014.1 hPa 0.25 mm - - -
1788179233 20° C 76% 1014 hPa 0.25 mm - - -
1788178933 20° C 73% 1014.2 hPa 0.25 mm - - -
1788178637 20° C 75% 1014 hPa 0.25 mm - - -
1788178333 20° C 75% 1014 hPa 0.25 mm - - -
1788178033 20° C 76% 1013.8 hPa 0.25 mm - - -
1788177733 19.44° C 77% 1013.7 hPa 0.25 mm - - -
1788177433 19.44° C 78% 1013.6 hPa 0.25 mm - - -
1788177133 19.44° C 79% 1013.5 hPa 0.25 mm - - -
1788176833 18.89° C 82% 1013.5 hPa 0.25 mm - - -
1788176533 18.33° C 81% 1013.5 hPa 0.25 mm - - -
1788176233 18.33° C 82% 1013.5 hPa 0 mm - - -
1788175933 18.33° C 81% 1013.4 hPa 0 mm - - -
1788175633 18.89° C 79% 1013.4 hPa 0 mm - - -
1788175333 19.44° C 78% 1013.1 hPa 0 mm - - -
1788175033 19.44° C 77% 1013 hPa 0 mm - - -
1788174733 19.44° C 77% 1013 hPa 0 mm - - -
1788174433 19.44° C 76% 1013 hPa 0 mm - - -
1788174133 20° C 77% 1012.8 hPa 0 mm - - -
1788173833 20° C 75% 1012.6 hPa 0 mm - - -
1788173533 20° C 77% 1012.5 hPa 0 mm - - -
1788173233 20° C 76% 1012.5 hPa 0 mm - - -
1788172933 20° C 79% 1012.4 hPa 0 mm - - -

* Rain latest hour (hover to see other rain measurements)
** Current wind speed in m/s (hover to see current wind gust speed)